Cheraw, SC

7:57 AM EST on November 18, 2017 (GMT -0500)
Cheraw

Weather History for KCQW - February, 2014

Change the Weather History Date:

Saturday, February 15, 2014

  Actual Average (KFLO) Record (KFLO)
Temperature  
Mean Temperature 38 °F -  
Max Temperature 48 °F 63 °F 83 °F (1989)
Min Temperature 28 °F 39 °F 22 °F (1991)
Degree Days  
Heating Degree Days 27    
Moisture  
Dew Point 27 °F    
Average Humidity 64    
Maximum Humidity 100    
Minimum Humidity 27    
Precipitation  
Precipitation 0.14 in - - ()
Sea Level Pressure  
Sea Level Pressure 29.80 in    
Wind  
Wind Speed 9 mph (WNW)    
Max Wind Speed 39 mph    
Max Gust Speed 75 mph    
Visibility 9 miles    
Events Rain    
Averages and records for this station are not official NWS values.
T = Trace of Precipitation, MM = Missing Value Source: NWS Daily Summary

Daily Weather History Graph

Daily Weather History Graph

Search for Another Location

Airport or City:

Trip Planner

Search our weather history database for the weather conditions in past years. The results will help you decide how hot, cold, wet, or windy it might be!

Date:

Astronomy

Feb. 15, 2014 Rise Set
Actual Time 7:05 AM EST 6:02 PM EST
Civil Twilight 6:39 AM EST 6:28 PM EST
Nautical Twilight 6:10 AM EST 6:58 PM EST
Astronomical Twilight 5:40 AM EST 7:27 PM EST
Moon 6:57 PM EST (2/15) 7:06 AM EST (2/15)
Length of Visible Light 11h 49m
Length of Day
10h 57m
Full, 100% of the Moon is Illuminated
Feb 15
Full
Feb 22
Last Quarter
Mar 1
New
Mar 8
First Quarter
Mar 16
Full

Hourly Weather History & Observations

Time (EST) Temp. Windchill Dew Point Humidity Pressure Visibility Wind Dir Wind Speed Gust Speed Precip Events Conditions
12:15 AM 37.4 °F - 32.0 °F 81% 29.71 in 10.0 mi Calm Calm - N/A   Mostly Cloudy
12:35 AM 39.2 °F - 33.8 °F 81% 29.70 in 10.0 mi Calm Calm - N/A   Mostly Cloudy
12:55 AM 39.2 °F - 32.0 °F 75% 29.70 in 10.0 mi Calm Calm - N/A   Clear
1:15 AM 41.0 °F 35.8 °F 33.8 °F 76% 29.70 in 10.0 mi South 8.1 mph - N/A   Partly Cloudy
1:35 AM 41.0 °F - 33.8 °F 76% 29.69 in 10.0 mi Calm Calm - N/A   Scattered Clouds
1:55 AM 37.4 °F - 32.0 °F 81% 29.67 in 10.0 mi Calm Calm - N/A   Scattered Clouds
2:15 AM 37.4 °F - 33.8 °F 87% 29.65 in 10.0 mi Calm Calm - N/A   Scattered Clouds
2:35 AM 41.0 °F 38.0 °F 35.6 °F 81% 29.64 in 10.0 mi SE 4.6 mph - N/A   Partly Cloudy
2:55 AM 41.0 °F 37.1 °F 37.4 °F 87% 29.65 in 10.0 mi South 5.8 mph - N/A   Partly Cloudy
3:15 AM 41.0 °F - 37.4 °F 87% 29.62 in 10.0 mi Calm Calm - N/A   Mostly Cloudy
3:35 AM 39.2 °F - 37.4 °F 93% 29.61 in 10.0 mi Calm Calm - N/A   Scattered Clouds
3:55 AM 37.4 °F - 35.6 °F 93% 29.58 in 10.0 mi Calm Calm - N/A   Scattered Clouds
4:15 AM 39.2 °F - 37.4 °F 93% 29.59 in 10.0 mi Calm Calm - N/A   Mostly Cloudy
4:35 AM 41.0 °F - 39.2 °F 93% 29.59 in 4.0 mi Calm Calm - 0.02 in Rain Light Rain
4:55 AM 39.2 °F - 39.2 °F 100% 29.59 in 5.0 mi Calm Calm - 0.05 in Rain Light Rain
5:15 AM 39.2 °F 33.6 °F 39.2 °F 100% 29.58 in 9.0 mi SW 8.1 mph - 0.01 in Rain Light Rain
5:35 AM 39.2 °F 33.0 °F 39.2 °F 100% 29.58 in 8.0 mi WSW 9.2 mph - 0.02 in Rain Light Rain
5:55 AM 39.2 °F 33.0 °F 39.2 °F 100% 29.57 in 7.0 mi WSW 9.2 mph - 0.02 in Rain Light Rain
6:15 AM 39.2 °F 33.0 °F 39.2 °F 100% 29.58 in 9.0 mi WSW 9.2 mph - N/A Rain Light Rain
6:35 AM 39.2 °F 33.0 °F 39.2 °F 100% 29.58 in 4.0 mi WSW 9.2 mph - 0.01 in Rain Light Rain
6:55 AM 39.2 °F 33.0 °F 39.2 °F 100% 29.59 in 5.0 mi WSW 9.2 mph - 0.03 in Rain Light Rain
7:15 AM 39.2 °F 31.6 °F 39.2 °F 100% 29.59 in 6.0 mi West 12.7 mph 18.4 mph 0.01 in Rain Light Rain
7:35 AM 39.2 °F 30.8 °F 39.2 °F 100% 29.60 in 5.0 mi West 15.0 mph 20.7 mph 0.03 in Rain Light Rain
7:55 AM 39.2 °F 31.6 °F 39.2 °F 100% 29.61 in 8.0 mi West 12.7 mph 18.4 mph 0.04 in Rain Light Rain
8:15 AM 39.2 °F 31.2 °F 39.2 °F 100% 29.63 in 10.0 mi West 13.8 mph 21.9 mph N/A   Partly Cloudy
8:35 AM 39.2 °F 30.8 °F 39.2 °F 100% 29.64 in 8.0 mi West 15.0 mph 21.9 mph N/A Rain Light Rain
8:55 AM 39.2 °F 30.5 °F 39.2 °F 100% 29.66 in 8.0 mi West 16.1 mph 24.2 mph N/A Rain Light Rain
9:15 AM 41.0 °F 33.1 °F 41.0 °F 100% 29.67 in 10.0 mi West 15.0 mph 26.5 mph N/A   Mostly Cloudy
9:35 AM 41.0 °F 32.5 °F 39.2 °F 93% 29.68 in 10.0 mi West 17.3 mph 44.9 mph N/A   Mostly Cloudy
9:55 AM 41.0 °F 30.5 °F 39.2 °F 93% 29.70 in 10.0 mi WNW 26.5 mph 38.0 mph N/A   Mostly Cloudy
10:15 AM 41.0 °F 30.2 °F 37.4 °F 87% 29.71 in 10.0 mi WNW 27.6 mph 35.7 mph N/A   Overcast
10:35 AM 41.0 °F 32.2 °F 37.4 °F 87% 29.73 in 10.0 mi WNW 18.4 mph 38.0 mph N/A   Overcast
10:55 AM 42.8 °F 33.3 °F 35.6 °F 76% 29.74 in 10.0 mi NW 24.2 mph 41.4 mph N/A   Mostly Cloudy
11:15 AM 44.6 °F 34.7 °F 32.0 °F 61% 29.75 in 10.0 mi NW 29.9 mph 47.2 mph N/A   Clear
11:35 AM 44.6 °F 34.2 °F 28.4 °F 53% 29.76 in 10.0 mi NW 33.4 mph 74.8 mph N/A   Partly Cloudy
11:55 AM 46.4 °F 36.0 °F 26.6 °F 46% 29.77 in 10.0 mi WNW 39.1 mph 62.1 mph N/A   Scattered Clouds
12:15 PM 46.4 °F 36.1 °F 24.8 °F 43% 29.77 in 10.0 mi WNW 38.0 mph 54.1 mph N/A   Partly Cloudy
12:35 PM 46.4 °F 36.7 °F 24.8 °F 43% 29.79 in 10.0 mi NW 33.4 mph 52.9 mph N/A   Clear
12:55 PM 46.4 °F 37.7 °F 24.8 °F 43% 29.79 in 10.0 mi WNW 26.5 mph 46.0 mph N/A   Clear
1:15 PM 46.4 °F 37.7 °F 24.8 °F 43% 29.80 in 10.0 mi NW 26.5 mph 56.4 mph N/A   Clear
1:35 PM 46.4 °F 36.7 °F 26.6 °F 46% 29.80 in 10.0 mi WNW 33.4 mph 50.6 mph N/A   Clear
1:55 PM 46.4 °F 36.3 °F 24.8 °F 43% 29.81 in 10.0 mi WNW 36.8 mph 52.9 mph N/A   Clear
2:15 PM 48.2 °F - 23.0 °F 37% 29.82 in 10.0 mi WNW 20.7 mph 50.6 mph N/A   Clear
2:35 PM 48.2 °F - 21.2 °F 34% 29.83 in 10.0 mi WNW 27.6 mph 44.9 mph N/A   Clear
2:55 PM 48.2 °F - 24.8 °F 40% 29.85 in 10.0 mi West 34.5 mph 46.0 mph N/A   Clear
3:15 PM 48.2 °F - 23.0 °F 37% 29.86 in 10.0 mi WNW 34.5 mph 44.9 mph N/A   Clear
3:35 PM 48.2 °F - 21.2 °F 34% 29.88 in 10.0 mi WNW 28.8 mph 43.7 mph N/A   Clear
3:55 PM 48.2 °F - 19.4 °F 32% 29.88 in 10.0 mi WNW 28.8 mph 42.6 mph N/A   Clear
4:15 PM 48.2 °F - 17.6 °F 30% 29.90 in 10.0 mi WNW 31.1 mph 41.4 mph N/A   Clear
4:35 PM 48.2 °F - 17.6 °F 30% 29.92 in 10.0 mi WNW 16.1 mph 42.6 mph N/A   Clear
4:55 PM 48.2 °F - 17.6 °F 30% 29.93 in 10.0 mi West 16.1 mph 34.5 mph N/A   Clear
5:15 PM 48.2 °F - 15.8 °F 27% 29.94 in 10.0 mi WNW 16.1 mph 38.0 mph N/A   Clear
5:35 PM 46.4 °F 40.4 °F 14.0 °F 27% 29.95 in 10.0 mi WNW 13.8 mph 27.6 mph N/A   Clear
5:55 PM 46.4 °F 41.5 °F 15.8 °F 29% 29.97 in 10.0 mi WNW 10.4 mph - N/A   Clear
6:15 PM 44.6 °F - 14.0 °F 29% 29.98 in 10.0 mi Calm Calm - N/A   Clear
6:35 PM 42.8 °F - 12.2 °F 29% 29.99 in 10.0 mi Calm Calm - N/A   Clear
6:55 PM 41.0 °F - 12.2 °F 31% 30.00 in 10.0 mi Calm Calm - N/A   Clear
7:15 PM 41.0 °F - 14.0 °F 33% 30.01 in 10.0 mi Calm Calm - N/A   Clear
7:35 PM 39.2 °F - 14.0 °F 36% 30.02 in 10.0 mi Calm Calm - N/A   Clear
7:55 PM 35.6 °F 29.2 °F 17.6 °F 48% 30.02 in 10.0 mi North 8.1 mph - N/A   Clear
8:15 PM 39.2 °F 33.0 °F 14.0 °F 36% 30.04 in 10.0 mi NNW 9.2 mph - N/A   Clear
8:35 PM 37.4 °F - 14.0 °F 38% 30.05 in 10.0 mi Calm Calm - N/A   Clear
8:55 PM 35.6 °F 27.5 °F 14.0 °F 41% 30.05 in 10.0 mi NNW 11.5 mph - N/A   Clear
9:15 PM 35.6 °F - 12.2 °F 38% 30.06 in 10.0 mi Calm Calm - N/A   Clear
9:35 PM 35.6 °F - 14.0 °F 41% 30.05 in 10.0 mi Calm Calm - N/A   Clear
9:55 PM 32.0 °F - 17.6 °F 55% 30.04 in 10.0 mi Calm Calm - N/A   Clear
10:15 PM 28.4 °F - 19.4 °F 69% 30.04 in 10.0 mi Calm Calm - N/A   Clear
10:35 PM 32.0 °F - 17.6 °F 55% 30.04 in 10.0 mi Calm Calm - N/A   Clear
10:55 PM 32.0 °F - 15.8 °F 51% 30.06 in 10.0 mi Calm Calm - N/A   Clear
11:15 PM 33.8 °F - 14.0 °F 44% 30.06 in 10.0 mi Calm Calm - N/A   Partly Cloudy
11:35 PM 32.0 °F - 17.6 °F 55% 30.06 in 10.0 mi Calm Calm - N/A   Partly Cloudy
11:55 PM 32.0 °F - 17.6 °F 55% 30.06 in 10.0 mi Calm Calm - N/A   Mostly Cloudy